Theta_e
303 302 300 299 298 297 297 296 296 294 294 293 294 294 293 292 291 291 290 290 289 289 290 289 289 289 288 288 288 288 288 288 288 287 287 288 288 288 286 286 287 287 288
304 301 298 297 297 296 296 295 294 294 293 293 292 292 292 291 291 290 290 289 288 288 288 288 288 288 287 287 287 287 287 288 287 287 287 288 287 287 285 286 285 286 287
303 300 297 296 297 296 296 295 294 293 292 291 291 291 291 291 290 289 288 288 288 287 287 288 288 287 287 287 287 287 287 287 287 287 287 288 287 286 286 285 285 286 286
301 299 298 298 297 296 295 295 294 293 292 291 291 290 289 289 288 288 287 287 287 287 287 287 287 287 287 287 287 287 287 286 286 286 287 287 286 287 286 285 284 284 285
302 300 299 298 296 296 296 294 293 292 291 291 290 289 288 288 287 287 287 287 287 287 287 287 287 287 287 287 287 287 287 287 286 286 286 286 286 285 285 286 284 284 285
302 300 298 297 298 297 296 294 293 292 291 290 288 288 288 287 287 287 287 287 287 287 287 287 287 287 287 287 287 287 287 286 286 286 286 285 285 285 284 285 284 285 285
302 301 299 299 299 298 296 294 294 292 291 289 287 287 287 287 287 287 287 287 286 286 286 286 286 286 286 286 286 286 286 286 285 284 284 283 283 282 282 282 284 285 285
302 301 299 299 300 298 294 294 293 292 290 288 288 287 287 287 287 286 286 285 285 285 285 285 285 285 285 285 285 285 284 284 283 282 282 282 282 282 282 282 284 285 285
302 301 299 300 299 299 295 294 293 291 289 287 288 287 287 287 286 285 284 283 282 283 283 283 284 284 284 284 284 283 283 282 283 283 282 282 282 282 282 282 283 284 286
302 300 300 300 299 296 294 292 291 289 287 288 288 287 287 286 285 284 282 282 282 281 282 282 282 282 281 281 281 282 282 283 283 282 282 282 281 282 282 283 283 284 285
302 300 301 300 299 294 293 291 290 288 288 288 287 287 287 285 285 283 283 282 282 281 281 281 281 281 281 281 281 282 283 283 283 282 282 282 282 282 282 283 284 284 285
301 301 301 299 296 294 292 290 288 288 288 288 287 287 286 285 285 284 283 283 283 281 281 281 281 281 281 281 281 282 283 283 283 282 282 282 282 282 282 283 283 284 285
302 301 301 301 299 294 291 289 288 288 288 287 287 287 287 285 285 284 284 283 283 281 281 281 281 280 280 280 281 283 284 284 283 282 282 282 282 282 283 283 284 284 285
301 302 302 300 298 292 289 289 288 288 288 288 287 287 287 285 285 285 284 284 283 282 281 281 281 280 280 281 282 283 283 282 282 281 281 282 282 283 283 284 285 285 285
302 303 301 297 292 290 289 288 288 288 287 288 287 287 287 286 285 285 284 283 282 282 281 281 281 281 281 281 282 282 283 282 281 281 282 282 282 283 283 283 284 285 286
303 302 298 294 291 289 289 288 287 287 287 287 287 287 286 286 285 285 284 283 282 281 281 281 281 281 281 281 282 281 281 281 281 281 281 281 282 282 282 282 283 284 285
303 301 298 294 290 288 288 287 287 287 287 287 286 286 286 285 285 284 284 282 281 281 281 282 281 281 280 280 281 281 281 281 281 281 281 281 281 281 281 282 283 284 285
300 297 294 290 288 288 287 287 288 287 287 286 285 285 285 285 285 284 283 282 281 281 281 281 281 281 280 280 281 281 281 280 281 280 280 280 281 281 281 282 283 284 285
298 294 290 288 288 288 287 288 288 287 286 285 285 285 285 285 284 283 283 282 281 281 281 281 281 280 280 280 280 280 280 280 280 280 280 280 280 280 281 282 283 283 284
295 290 289 288 288 287 287 288 287 286 286 285 285 285 285 284 284 283 283 282 282 281 281 281 281 280 280 280 280 280 279 279 279 279 279 279 279 279 280 281 281 283 283
290 289 289 288 287 287 287 287 287 286 285 285 285 285 284 284 283 283 282 282 281 281 280 280 280 280 280 280 280 279 279 279 278 278 279 279 278 279 279 279 280 281 281
289 289 288 288 287 286 286 286 286 285 285 285 285 284 284 283 283 283 282 281 281 281 280 280 280 280 280 280 279 279 279 278 277 277 278 278 278 278 278 278 279 280 281
289 288 288 287 287 286 285 285 285 285 285 285 284 284 283 282 282 282 282 281 281 281 280 280 280 280 280 280 279 279 278 278 277 277 277 277 277 277 277 277 278 279 281
288 288 287 287 286 285 285 285 285 285 285 285 284 284 283 282 282 282 281 281 280 280 280 280 280 280 280 280 279 279 278 278 277 276 277 278 277 277 277 277 277 278 279
288 288 287 287 286 286 285 285 285 285 285 285 284 283 282 282 282 281 280 280 280 279 280 280 280 280 280 279 279 278 278 277 276 277 278 278 278 277 277 277 277 278 278
287 287 287 286 285 285 286 285 285 285 285 284 283 282 282 282 281 281 281 280 280 279 280 280 279 279 279 279 279 279 278 278 277 278 278 278 277 277 277 277 277 277 278
Wind_Speed
15 16 15 14 16 16 16 15 15 16 15 15 11 9 7 10 11 11 12 13 14 14 13 13 14 14 15 16 15 15 15 16 16 17 18 11 8 4 13 14 9 11 9
12 14 13 14 15 14 13 13 13 14 15 13 11 8 9 8 10 11 13 14 15 15 14 15 15 14 15 15 15 15 15 14 15 14 17 5 8 5 20 6 15 12 8
12 11 11 11 11 12 10 10 12 13 12 13 12 11 9 9 12 15 15 16 16 16 15 14 14 14 14 15 14 14 14 15 15 12 9 6 4 18 5 19 12 11 12
9 10 10 10 9 8 8 9 10 9 11 13 12 14 13 13 14 15 16 17 17 17 17 16 16 16 16 16 16 14 14 12 16 15 12 13 16 9 8 14 22 19 16
9 9 10 8 6 6 7 6 8 9 10 13 16 15 14 14 15 16 17 18 18 19 19 19 19 18 18 17 17 16 16 15 14 16 16 16 17 17 15 13 18 21 16
9 10 8 5 6 5 5 5 6 8 11 14 16 15 14 15 19 21 21 22 21 20 21 21 20 20 19 18 17 17 16 15 15 15 16 16 18 21 20 12 17 19 20
9 9 7 5 4 3 3 3 5 9 10 13 16 16 14 15 18 21 22 24 23 22 21 22 21 20 19 18 18 16 13 12 12 16 19 21 22 21 21 19 17 13 19
8 8 5 4 3 2 4 5 8 9 10 13 14 16 15 16 18 21 22 21 21 21 22 22 20 19 19 18 14 12 12 15 18 19 18 19 18 17 16 16 15 10 11
9 7 5 3 3 3 4 6 8 8 9 12 15 15 15 17 19 21 20 20 20 21 21 20 20 20 20 18 15 15 18 19 18 19 17 16 16 15 14 14 14 14 9
9 8 5 4 4 6 5 7 7 8 10 11 14 14 14 17 19 20 21 21 22 21 20 20 21 21 20 20 19 17 19 20 20 19 17 16 15 14 13 14 14 14 15
10 9 6 4 6 5 6 6 6 8 9 11 14 14 13 17 19 20 20 21 23 22 20 20 21 21 22 22 18 18 20 22 22 19 16 16 15 14 14 13 14 14 14
10 9 7 6 5 5 5 6 6 8 9 11 13 14 13 16 20 21 21 23 25 22 20 20 21 21 23 21 19 23 25 24 23 20 17 16 14 14 14 13 13 14 15
10 9 7 5 5 5 5 6 7 9 9 11 14 15 14 16 19 21 23 23 25 21 21 21 22 22 23 21 22 26 25 22 23 19 16 16 15 15 14 14 15 14 14
10 9 7 6 5 5 5 5 7 9 10 12 14 15 16 16 19 21 23 23 25 23 22 21 21 22 22 22 28 30 28 26 21 17 16 16 15 15 19 16 15 15 16
10 8 8 6 7 6 5 6 8 10 11 12 15 16 16 17 20 21 23 24 24 22 21 22 23 23 22 26 32 33 29 25 21 19 19 16 17 18 16 17 18 17 19
10 9 9 8 6 5 5 7 9 10 12 13 15 16 16 18 21 21 23 26 24 23 22 23 24 25 24 29 33 34 29 25 22 22 20 18 18 17 19 20 21 23 23
10 10 9 7 8 6 6 7 8 10 12 14 16 17 18 20 21 21 23 25 24 22 23 24 26 25 25 31 36 35 28 25 25 23 20 20 18 19 21 23 22 21 20
11 11 9 10 7 6 5 5 8 10 12 16 17 18 19 20 21 22 24 24 23 23 23 24 26 26 27 33 38 38 30 27 26 22 19 20 20 21 27 24 20 19 18
14 12 11 10 8 5 4 5 7 10 14 17 17 18 19 20 21 21 23 24 23 23 23 23 25 28 30 34 41 40 33 31 28 22 20 20 21 27 25 20 18 18 18
14 14 12 9 7 5 6 5 7 11 14 16 17 17 18 19 20 20 22 23 21 22 23 24 25 27 31 35 40 40 34 34 30 25 24 23 27 29 24 19 16 17 17
16 14 11 9 7 6 6 8 8 11 12 14 15 16 18 18 18 19 21 23 23 23 25 25 26 29 32 36 40 38 36 34 28 27 28 29 33 29 25 20 16 19 18
15 13 12 10 7 7 7 9 11 11 12 14 15 17 17 18 18 19 21 23 25 26 27 29 30 31 33 36 40 37 37 37 31 30 29 31 32 29 26 22 23 20 15
15 12 12 11 9 9 9 9 10 11 13 14 16 17 18 18 17 19 21 23 25 26 27 29 30 32 34 37 40 37 36 38 37 34 32 32 32 30 28 28 27 21 18
15 13 12 11 10 9 12 12 11 12 14 14 16 17 17 18 18 18 19 22 25 27 27 28 29 30 32 37 41 39 37 40 40 37 33 33 32 30 30 30 28 23 21
14 13 12 11 10 9 12 12 12 12 12 13 15 17 16 17 18 17 19 20 20 22 24 26 26 28 32 37 37 36 36 40 39 33 34 37 39 38 37 35 32 28 28
15 13 12 12 10 9 10 11 12 12 13 13 15 17 16 16 17 17 16 18 18 19 22 24 27 28 28 34 38 38 36 39 37 35 35 36 38 37 36 35 34 31 30
Wind_Direction
98 91 92 92 90 84 77 65 55 50 45 40 29 16 15 16 17 17 13 6 358 347 340 339 334 334 335 334 335 334 331 333 335 327 334 326 343 121 336 311 292 313 301
103 97 88 88 79 79 74 67 59 51 43 36 29 21 18 12 12 7 2 358 353 351 344 338 337 334 333 337 337 337 330 325 333 330 323 328 313 291 327 341 312 300 288
122 110 90 83 85 83 77 70 59 49 44 40 31 22 9 5 2 360 355 353 351 349 343 338 333 331 328 327 329 329 331 323 324 322 314 321 319 325 307 316 315 307 291
121 116 109 92 83 91 79 68 61 50 43 36 29 25 21 12 360 353 350 349 350 346 342 337 332 325 321 315 314 315 312 312 318 319 306 290 297 308 308 308 308 299 292
140 125 104 101 101 95 77 73 56 44 35 30 24 19 16 8 356 351 347 345 344 346 343 338 331 325 321 313 309 307 303 303 300 310 307 298 291 290 287 299 305 302 288
140 122 112 116 95 84 84 84 52 41 31 24 19 16 11 2 356 352 348 344 341 339 339 337 332 327 323 320 315 309 303 297 299 299 300 293 290 291 291 288 290 294 296
152 142 130 110 83 81 109 74 47 40 31 21 15 11 5 1 355 351 344 342 341 338 337 337 334 332 329 324 320 315 312 312 308 303 299 293 287 285 280 278 277 284 290
158 139 127 97 100 113 114 56 45 40 28 16 13 8 8 360 356 349 345 341 339 336 334 335 336 336 335 334 333 329 325 317 311 307 304 298 291 285 274 268 274 283 285
158 144 135 126 153 129 91 58 47 43 23 15 10 8 6 3 356 352 350 346 342 338 336 339 339 339 338 335 329 322 324 323 320 314 307 302 295 286 279 270 265 269 282
151 149 149 150 139 125 89 58 54 38 20 12 7 4 2 1 358 357 358 354 349 345 343 343 342 340 340 337 328 322 327 327 325 320 310 304 300 293 284 275 270 264 266
155 153 142 141 132 113 81 60 48 29 16 9 3 1 1 0 1 0 358 354 351 349 348 347 344 343 344 343 342 337 333 328 323 320 315 307 303 296 291 285 276 268 263
150 148 138 124 131 107 86 63 37 24 11 4 1 358 355 358 360 358 354 352 352 351 349 347 347 346 346 345 344 338 332 326 323 320 315 308 306 296 290 284 278 278 279
148 145 141 131 119 114 87 58 36 16 7 1 357 355 351 354 356 355 352 351 351 352 352 351 351 349 346 345 343 334 331 329 323 318 313 307 303 299 295 286 279 277 269
152 153 144 120 114 102 76 53 24 10 2 358 357 353 352 351 351 350 350 351 352 352 354 355 353 351 349 350 344 340 335 333 327 319 314 308 301 297 293 289 284 275 269
160 153 137 117 114 97 74 36 17 6 2 355 354 354 353 352 352 350 352 353 355 356 357 355 355 354 354 352 346 344 340 336 329 324 320 312 306 302 303 301 298 291 278
157 141 129 117 117 97 63 32 21 12 360 357 355 353 354 353 354 354 355 355 358 359 359 359 356 354 356 351 350 348 342 339 333 328 323 317 316 312 310 305 297 290 284
145 137 125 113 113 91 51 39 17 6 7 4 358 358 357 355 356 357 359 360 359 0 1 359 357 356 355 353 353 351 347 341 337 333 329 328 322 320 317 310 303 296 286
133 128 123 115 105 81 54 34 13 11 11 6 1 360 0 0 0 1 4 2 3 3 360 358 357 356 356 355 356 355 351 347 344 339 336 327 328 326 324 319 309 304 298
129 123 122 116 103 78 47 15 15 18 14 7 2 360 2 3 3 5 5 4 4 4 0 359 359 358 356 358 359 358 354 350 346 345 339 336 334 333 332 325 315 311 308
127 125 120 112 92 67 18 26 25 20 12 4 360 1 2 4 4 4 6 4 7 4 2 1 1 360 359 360 1 1 355 352 350 349 346 343 342 341 341 337 325 317 315
124 121 117 102 86 57 44 39 25 18 4 1 1 4 6 6 7 9 11 9 8 5 6 5 4 3 2 1 1 1 358 356 353 353 350 347 345 345 347 347 338 331 321
126 125 113 100 84 57 44 37 28 13 7 6 9 9 9 10 10 15 16 16 12 9 8 6 5 4 3 1 359 360 1 359 357 350 347 346 348 352 353 354 349 348 348
130 126 116 104 79 58 43 36 24 19 11 14 14 12 13 14 17 21 21 19 15 12 10 6 3 357 358 359 358 1 2 1 357 353 351 352 355 358 359 357 357 357 353
134 131 118 104 85 63 53 49 34 20 15 18 14 14 16 20 22 27 25 22 17 11 9 7 1 357 359 0 359 358 1 0 358 355 357 2 3 4 3 1 360 359 353
134 130 123 114 99 73 59 46 36 23 19 19 17 17 18 20 25 33 29 27 26 21 13 10 6 1 1 360 2 4 4 2 357 357 3 6 7 4 3 1 358 356 354
138 130 126 122 109 84 61 44 33 26 25 25 22 21 22 25 28 29 30 29 27 21 20 19 17 9 9 7 8 7 6 6 4 8 8 5 5 4 1 359 355 355 353